Simultaneous Nadir Overpasses (SNOs) Predictions

Prediction of SNOs between FY3D and NOAA-19 Satellite Orbit:

Table of predicted SNOs for the next 14.0 days since TLE Epoch: 2/17/2024
Index Date (FY3D) Time (FY3D) Lat,Lon (FY3D) SZA (FY3D ) Date (NOAA-19) Time (NOAA-19) Lat,Lon (NOAA-19) SZA (NOAA-19 ) Distance(km) Time Diff (sec)
1 02/27/2024 17:59:04 -75.82, 87.97 95.87 02/27/2024 17:57:55 -75.83, 85.70 95.79 61.75 69
2 02/27/2024 18:49:57 76.15,-105.87 84.48 02/27/2024 18:48:49 76.16,-105.85 84.50 1.72 68
3 02/27/2024 19:40:43 -76.18, 61.32 95.50 02/27/2024 19:39:46 -76.16, 61.39 95.52 3.29 57
4 02/27/2024 20:31:27 76.15,-131.25 84.45 02/27/2024 20:30:46 76.18,-131.28 84.49 3.43 41
5 02/27/2024 21:22:13 -76.18, 35.94 95.53 02/27/2024 21:21:43 -76.17, 35.96 95.54 1.17 30
6 02/27/2024 22:12:59 76.19,-156.79 84.48 02/27/2024 22:12:44 76.19,-156.71 84.48 2.05 15
7 02/27/2024 23:03:44 -76.18, 10.56 95.56 02/27/2024 23:03:41 -76.19, 10.52 95.55 1.22 3
8 02/27/2024 23:54:30 76.19, 177.83 84.45 02/27/2024 23:54:42 76.21, 177.85 84.46 1.79 12
9 02/28/2024 00:45:15 -76.18, -14.82 95.58 02/28/2024 00:45:39 -76.20, -14.91 95.56 3.33 24
10 02/28/2024 01:36:01 76.19, 152.45 84.42 02/28/2024 01:36:40 76.22, 152.42 84.45 3.44 39
11 02/28/2024 02:26:47 -76.23, -40.36 95.56 02/28/2024 02:27:37 -76.22, -40.35 95.58 1.30 50
12 02/28/2024 03:17:33 76.24, 126.91 84.45 02/28/2024 03:18:38 76.24, 126.99 84.44 2.18 65
13 02/28/2024 04:08:20 -76.32, -66.07 95.49 02/28/2024 04:09:34 -76.27, -65.61 95.55 12.80 74



Historial Predications of SNOs between FY3D and NOAA-19
